C/2005 R4 (LINEAR)

Epoch 2006 Mar. 6.0 TT = JDT 2453800.5  

T 2006 Mar. 8.00002 TT                                  Nakano

q   5.1884511            (2000.0)            P               Q

z  +0.0004820      Peri.    6.88529     +0.54213900     +0.80314617

 +/-0.0000014      Node    63.77186     +0.75722062     -0.59441622

e   0.9974992      Incl.  164.01278     +0.36428319     +0.04031851

From 455 observations 2005 Sept. 13-2006 Dec. 26, mean residual 0".59.

   (1/a)org.= +0.001082, (1/a)fut.= +0.001133 (+/-0.000001), Q= 8.

Residuals in seconds of arc 

2005/                     051122 349  0.7+  0.0     060107 561  1.4-  0.6-  

050913 704  0.1+  0.9+    051126 939  0.0   0.1-    060108 561  0.5-  0.1-  

050913 704  0.2+  0.7+    051126 939  0.3+  0.2+    060108 561  0.1-  0.1+  

050913 704  0.3-  0.6+    051126 939  0.2-  0.5+    060108 561  1.1-  0.1-  

050913 704  0.1-  0.1+    051127 D83  0.2+  0.6+    060112 213  0.9-  0.7+  

050913 704  0.1-  0.4+    051127 D83  0.6+  0.4+    060112 213  1.0-  0.7+  

050914 854  0.4-  0.9-    051127 D83  0.0   0.4+    060112 213  0.1+  0.3+  

050914 854  0.6-  1.8-    051127 D83  0.8+  0.6+    060116 A32  0.7+  0.4-  

050914 854  0.8-  1.8-    051127 J97  1.5+  0.3+    060119 213  1.0-  0.3+  

050914 704  0.3+  0.0     051127 J97  1.1+  0.4-    060119 213  0.9-  0.3+  

050914 704  0.1-  1.1-    051127 J97  0.1+  1.0-    060119 213  1.1-  0.3+  

050914 704  0.2+  0.8-    051128 703  1.9+  0.2-    060121 J76  0.2+  0.4+  

050914 704  0.5-  0.6-    051128 703 (2.6+  0.2-)   060121 J76  0.3-  1.2+  

050915 704  0.4-  0.6-    051128 703 (2.8+  0.3-)   060121 J76  0.6+  0.3-  

050915 704  0.4-  0.3-    051128 703 (2.9+  0.4-)   060122 130  1.0-  0.5-  

050915 673  0.4-  0.2+    051129 704  0.5+  0.3+    060122 130  0.7-  0.7-  

050915 704  0.2-  0.4-    051129 704  0.3+  0.8+    060122 130  0.3-  0.6-  

050915 673  0.4-  0.2+    051129 704  0.1+  0.2+    060122 130  0.6-  0.5-  

050915 704  0.6-  0.2-    051129 704  0.3+  0.1+    060123 G96 (2.1+  0.1+) 

050915 673  0.6-  0.3+    051129 704  1.1-  0.1-    060123 G96 (3.0+  0.2+) 

050915 704  0.2-  0.2+    051130 D88  0.9+  0.0     060123 G96 (4.0+  0.4+) 

050915 673  0.4-  0.3+    051130 D88  1.0+  0.1-    060123 918  0.5-  0.0   

050916 H06  1.0+  0.9-    051130 D88  1.8+  0.3+    060123 918  1.2-  0.4-  

050916 H06  0.8+  0.3-    051130 213  0.3-  0.5-    060123 918  1.0-  0.2-  

050916 H06  0.4+  0.0     051130 213  0.4-  0.4-    060123 G96 (3.8+  0.4+) 

050916 704  0.2+  1.0+    051130 213  0.4-  0.4-    060123 918  0.2+  0.1+  

050916 854  0.1+  0.0     051201 850  0.2-  0.3-    060123 918  1.9-  0.3-  

050916 704  0.4-  0.4-    051201 850  0.3+  0.3-    060123 215  0.7+  0.2+  

050916 854  0.1+  0.1+    051201 704  0.6+  0.2+    060124 704  0.2+  0.1+  

050916 704  0.2+  0.5-    051201 704  0.8+  0.1+    060124 704  0.5+  0.1+  

050916 854  0.9+  0.1-    051201 704  0.4+  0.1-    060124 704  0.2+  0.3-  

050916 704  0.3-  0.3-    051201 704  0.8+  0.2+    060124 704  0.1+  0.2+  

050916 704  0.7-  0.5-    051201 704  0.9+  0.0     060124 704  0.9-  0.2+  

050916 673  0.5-  0.4+    051202 H45  1.0+  0.5-    060124 J97  1.2-  0.2-  

050916 673  0.5-  0.3+    051202 H45 (2.4+  0.1+)   060128 699 (2.6+  0.5+) 

050916 673  0.5-  0.2+    051202 H45  1.9+  0.5-    060128 699  0.6+  0.3+  

050916 673  0.6-  0.3+    051202 H45  1.3+  0.7-    060128 699 (2.2+  0.4+) 

050928 291  0.3+  0.1-    051203 232  0.2-  0.1-    060128 D88  0.9+  0.1-  

050928 291  0.3+  0.0     051203 232  0.6-  0.7+    060128 D88  0.1+  0.0   

050928 291  0.2+  0.0     051203 232  0.1+  0.3-    060128 D88  0.1+  0.1+  

051001 213  0.1-  0.0     051203 442  0.1-  0.2+    060218 J76  0.3+  0.2-  

051001 213  0.1-  0.0     051203 170  0.5-  0.5-    060218 J76  0.3-  0.1+  

051001 213  0.2-  0.2+    051203 170  0.2-  0.6-    060218 J76  0.2-  0.5-  

051001 704  0.0   0.2-    051203 170  0.1+  0.7-    060226 H06  0.2-  0.1-  

051001 704  0.3+  0.0     051204 704  0.2-  0.2-    060226 H06  0.2-  0.1-  

051001 704  0.0   0.0     051204 704  0.2+  0.4-    060306 147  0.5+  0.1-  

051001 704  0.1+  0.1-    051204 704  0.2-  0.0     060306 147  0.9-  0.4+  

051001 704  0.1-  0.1+    051204 704  0.1+  0.0     060824 704  0.0   0.0   

051001 372  0.1+  0.3-    051204 G96 (3.1+  0.3-)   060824 704  0.9+  0.0   

051002 673  0.5-  0.3+    051204 G96 (3.2+  0.3-)   060824 704  0.2-  0.2-  

051002 673  0.4-  0.2+    051204 G96 (2.8+  0.3-)   060824 704  0.5-  0.6+  

051002 673  0.4-  0.1+    051204 704  0.5+  0.1-    060824 704  0.2-  0.0   

051002 673  0.6-  0.1+    051204 G96 (3.1+  0.3-)   060831 215  0.3+  0.7-  

051003 A32  0.3+  0.0     051204 J67  0.1-  0.6-    060831 215  0.6+  0.6-  

051003 A32  0.3-  0.2-    051204 J67  1.3-  0.2-    060831 215  0.8+  0.5-  

051004 561 (2.7+  0.2-)   051205 704  0.9+  0.1+    060901 704  0.2-  0.4-  

051004 561  0.0   0.2-    051205 704  1.2+  0.2-    060901 704  0.7-  0.1-  

051004 561  0.9-  1.1+    051205 704  0.4-  0.3+    060901 704  0.2+  0.0   

051004 A32  0.4+  0.8-    051205 704  0.3-  0.3+    060901 704  0.1-  0.5-  

051004 A32  0.6-  0.6-    051205 699  1.2+  0.0     060901 704  0.8-  0.7+  

051005 704  0.3+  0.2+    051205 704  0.6+  0.0     060901 704  0.2-  0.3-  

051005 704  1.0+  0.7-    051205 699 (2.3+  0.4+)   060901 704  0.6-  0.1+  

051005 704  1.5+  1.1+    051205 699  1.2+  0.1-    060901 704  0.0   0.5+  

051005 704  1.4+  1.5+    051205 699  1.5+  0.3+    060901 704  0.3+  0.1+  

051005 704  0.2+  0.5-    051205 213  0.2-  1.0-    060902 442  0.2+  0.3+  

051005 A79  0.4-  0.6-    051205 213  0.1-  0.6-    060917 703  0.1-  0.0   

051005 A79  0.8-  0.5-    051205 213  0.2+  0.4+    060917 703  0.5-  1.2-  

051005 A79  0.3+  0.0     051206 939  0.7+  0.7+    060917 703  0.9-  0.2-  

051007 A79  0.5+  0.6-    051206 939  0.2+  0.1-    060921 704  0.8+  0.9-  

051007 A79  0.2-  1.1-    051206 939  0.1-  0.8-    060921 704  1.6+  0.2-  

051007 A79  0.1-  0.3-    051206 704  0.3+  0.2+    060921 704 (2.1+  0.2-) 

051007 A32  0.5+  0.3-    051206 704  0.7+  0.1+    060921 704  0.8+  1.0+  

051007 A79  0.3+  0.2-    051206 704  0.9+  0.3+    060922 473  0.7-  0.1-  

051007 A32  0.4-  0.2-    051206 704  1.3+  0.5+    060922 473  0.8-  0.0   

051007 A32  0.2-  0.3-    051206 704  0.3+  0.1-    060922 473  0.5-  0.0   

051009 A33  0.3-  0.1-    051206 A32  0.2-  0.4-    060923 B01  1.0-  0.1+  

051009 A33  0.3-  0.3-    051206 A32  0.2-  0.4+    060923 B01  0.7+  0.7+  

051012 A32  0.1+  0.1+    051206 A32  0.2-  0.3+    060923 B01  1.4+  0.4+  

051013 704  0.7-  0.3-    051209 704  0.8+  0.1+    060923 B01  0.3+  0.3-  

051013 704  0.3-  0.1+    051209 704  1.1+  0.4+    060926 A77  0.9+  0.1-  

051013 704  0.6-  0.1+    051209 704  0.3+  0.5+    060926 A77  0.5-  0.6-  

051020 673  0.6-  0.1+    051209 704  1.0+  0.3+    060926 A77 (4.6+  0.9-) 

051020 673  0.5-  0.0     051209 704  0.5+  0.2+    060926 A77 (3.2+  0.3+) 

051020 673  0.7-  0.0     051209 232  0.0   0.1+    060928 703  0.0   0.5-  

051024 349  0.2+  0.4-    051209 232  0.5-  0.2-    060928 703 (2.3+  0.5-) 

051024 349  0.0   0.3-    051209 232  0.7-  0.2-    060928 703 (2.0+  0.2-) 

051024 349  0.2-  0.4-    051216 J97  0.3-  0.6-    060928 703  0.0   0.2-  

051024 A79  0.6+  0.4+    051221 699  1.5+  0.8+    061001 J67  0.5-  0.1-  

051024 A79  0.3+  0.1+    051221 699 (2.5+  0.1+)   061001 J67  0.9-  0.6-  

051024 A79  0.1+  0.2+    051221 699  1.8+  0.1+    061001 J67  0.3-  0.8-  

051026 215  0.4-  0.5-    051221 213  0.9-  0.0     061005 204  0.4+  0.1+  

051026 215  0.4-  0.1-    051221 213  0.8-  0.2+    061005 204  0.1-  0.4-  

051026 A79  0.0   0.2+    051221 213  0.8-  0.3+    061013 850  1.3+  0.3+  

051026 A79  0.8+  0.3+    051223 D88  0.1-  0.2+    061013 850  1.2+  0.4-  

051026 A79  0.6+  0.0     051223 D88  0.2-  0.4+    061013 850  1.3+  0.1-  

051028 704  0.7-  0.3+    051223 D88  0.8-  0.6+    061014 850  1.6+  0.2-  

051028 704  0.3+  0.4+    051223 939  0.2-  0.3-    061014 850  1.2+  0.4-  

051028 704  0.8+  0.5+    051223 939  0.2+  0.0     061014 850  1.2+  0.1-  

051028 704  0.9-  0.5+    051223 939  0.5+  0.2+    061019 703  0.0   0.4-  

051028 704  0.4+  0.2+    051224 703  0.1-  0.6+    061019 703  1.3-  0.4-  

051029 G96  0.5-  0.2-    051224 703  0.3-  0.6+    061019 703  1.1-  0.2-  

051029 G96  1.1-  0.2-    051224 703  0.5+  0.5+    061019 703 (2.5-  0.4-) 

051029 G96  0.8-  0.2-    051224 703  1.8+  0.2+    061021 704  0.0   0.7+  

051029 G96  0.6-  0.4-    051224 349  0.9+  0.3+    061021 704  0.0   0.5+  

051029 A79  0.2-  0.7+    051224 349  0.9+  0.4+    061021 704  0.6+  0.8+  

051029 A79  0.4+  0.2+    051224 349  0.7+  0.0     061022 644  0.4+  0.0   

051029 A79  1.0-  1.0-    051225 G96 (3.1+  0.2+)   061022 644  0.3-  0.3+  

051031 704  0.0   0.0     051225 G96 (3.4+  0.1+)   061022 644  0.1-  0.4+  

051031 704  0.3-  0.1-    051225 G96 (3.1+  0.1+)   061023 644  0.3-  0.1-  

051031 704  0.3-  0.7-    051225 G96 (3.3+  0.1+)   061023 644  0.8-  0.1+  

051101 213  0.5-  0.1+    051225 D88  0.4+  0.2-    061023 644  0.5-  0.0   

051101 213  0.4-  0.0     051225 D88  0.0   0.6-    061026 561  0.2+  0.1+  

051101 213  0.4-  0.0     051225 D88  1.2+  0.3+    061026 561  0.6-  0.3-  

051101 704  0.2-  0.1+    051225 232  0.1+  0.3-    061026 561  0.8-  0.2-  

051101 704  0.1+  0.4+    051225 232  0.0   0.1+    061026 A41  1.2+  0.1-  

051101 704  0.3+  0.3-    051225 J97  0.2+  0.6+    061026 A41  1.3+  0.3-  

051101 704  0.3-  0.9-    051225 048  0.9-  0.4+    061026 A24  0.4-  0.5+  

051103 704  0.4+  0.3+    051225 048  0.4-  0.1+    061026 A24  1.3+  0.5+  

051103 704  0.2+  0.2+    051225 232  0.3-  0.3-    061027 703  1.2-  0.2+  

051103 704  0.0   0.5+    051225 048  0.0   0.2+    061027 703  0.1-  0.4-  

